Regional Weather Roundup
Issued by NWS

Home | Current Version | Previous Version | Text Only | Print | Product List | Glossary On
Versions: 1 2 3 4 5 6 7 8 9 10 11 12 13 14 15 16 17 18 19 20 21 22 23 24 25 26 27 28 29 30 31 32 33 34 35 36 37 38 39 40 41 42 43 44 45 46 47 48 49 50
000
ASUS45 KCYS 260410
RWRWY

WYOMING REGIONAL WEATHER ROUNDUP
NATIONAL WEATHER SERVICE CHEYENNE WY
1000 PM MDT TUE JUL 25 2017

NOTE:  "FAIR" INDICATES FEW OR NO CLOUDS BELOW 12,000 FEET
WITH NO SIGNIFICANT WEATHER AND/OR OBSTRUCTIONS TO VISIBILITY.

WYZ001-260500-
YELLOWSTONE NATIONAL PARK

CITY           SKY/WX    TMP DP  RH WIND       PRES   REMARKS
LK YELLOWSTONE   N/A     48  48 100 NW3       30.39R
W YELLOWSTONE  NOT AVBL

$$
WYZ002>013-054>058-071-098>099-260500-
NORTHERN WYOMING

CITY           SKY/WX    TMP DP  RH WIND       PRES   REMARKS
JACKSON        FAIR      57  54  88 NE3       30.28R
CODY           FAIR      60  52  74 S8        30.22S
GREYBULL       FAIR      65  51  60 CALM      30.15S
WORLAND        FAIR      61  54  77 SW6       30.18S
SHERIDAN       FAIR      62  59  90 SW5       30.13S
BUFFALO        CLOUDY    63  58  83 S7        30.21S
GILLETTE       CLOUDY    64  61  90 S6        30.18S
HULETT         LGT RAIN  64  61  88 S6        30.20S
NEWCASTLE      LGT RAIN  66  59  77 N13       30.17S

$$
WYZ014>020-022>026-101>103-260500-
CENTRAL WYOMING

CITY           SKY/WX    TMP DP  RH WIND       PRES   REMARKS
BIG PINEY      CLOUDY    58  55  90 W5        30.31R
PINEDALE       CLOUDY    61  50  67 W3        30.32R
DUBOIS         FAIR      55  43  62 S6        30.33R
LANDER         CLOUDY    66  50  56 W3        30.24R
RIVERTON       CLOUDY    65  54  67 E5        30.25R
CASPER         CLOUDY    62  58  86 SE8       30.25R
DOUGLAS        LGT RAIN  62  58  86 NW9       30.23R

$$
WYZ021-027>030-104>119-260500-
SOUTHERN WYOMING

CITY           SKY/WX    TMP DP  RH WIND       PRES   REMARKS
EVANSTON       MOCLDY    63  55  75 CALM      30.29R
KEMMERER         N/A    N/A N/A N/A N8        30.30R
FORT BRIDGER   FAIR      66  51  58 SW9       30.30R
ROCK SPRINGS   LGT RAIN  61  54  77 NE14G23   30.30R
RAWLINS        LGT RAIN  58  56  93 NE16      30.30R
SARATOGA       CLOUDY    61  61 100 W6        30.29S
LARAMIE        CLOUDY    58  56  93 NW3       30.33R
CHEYENNE       FAIR      66  54  65 N17G28    30.23S
TORRINGTON     CLOUDY    75  56  51 N10       30.08S
PINE BLUFFS    FAIR      70  52  52 NW22G29   30.14S

$$



USA.gov is the U.S. government's official web portal to all federal, state and local government web resources and services.